Miscellaneous Local Product
Issued by NWS Hastings, NE

Home | Current Version | Previous Version | Graphics & Text | Print | Product List | Glossary On
Versions: 1 2 3 4 5 6 7 8 9 10 11 12 13 14 15 16 17 18 19 20 21 22 23 24 25 26 27 28 29 30 31 32 33 34 35 36 37 38 39 40 41 42 43 44 45 46 47 48 49 50
000
AXUS43 KGID 231702
MISGRI

GID CWA HOURLY WEATHER ROUNDUP
NATIONAL WEATHER SERVICE HASTINGS NE
1100 AM CST FRI JAN 23 2015

NOTE: "FAIR" INDICATES FEW OR NO CLOUDS BELOW 12,000 FEET WITH NO
SIGNIFICANT WEATHER AND/OR OBSTRUCTIONS TO VISIBILITY.

...SOUTH CENTRAL NEBRASKA...

CITY           SKY/WX    TMP DP  RH WIND       PRES   REMARKS
GRAND ISLAND   MOSUNNY   36  21  54 W10       30.05F WCI  28
HASTINGS       MOSUNNY   36  20  52 W9        30.05S WCI  29
KEARNEY        MOSUNNY   36  19  51 NW12      30.05F WCI  27
ORD            PTSUNNY   37  23  56 NW10      30.03S WCI  30
YORK           MOSUNNY   32  25  74 W9        30.07S WCI  24
AURORA         MOSUNNY   34  22  61 SW6       30.05S WCI  29
LEXINGTON      MOSUNNY   34  25  68 NW15      30.07S WCI  25
HOLDREGE       MOSUNNY   32  20  62 W10       30.06S WCI  24
HEBRON         SUNNY     32  22  68 SW9       30.10S WCI  24

...NEBRASKA PANHANDLE...

CITY           SKY/WX    TMP DP  RH WIND       PRES   REMARKS
CHADRON        CLOUDY    38  24  57 NW12      30.18R WCI  30
ALLIANCE       PTSUNNY   37  25  61 N14       30.13R WCI  28
SCOTTSBLUFF    MOSUNNY   37  23  56 NW17      30.17R WCI  27
SIDNEY         SUNNY     42  20  41 NW22G31   30.14R

...WESTERN AND NORTH CENTRAL NEBRASKA...

CITY           SKY/WX    TMP DP  RH WIND       PRES   REMARKS
VALENTINE      CLOUDY    41  26  55 NW15G23   30.07R
AINSWORTH      PTSUNNY   40  25  56 NW17G23   30.04R WCI  31
ONEILL         MOSUNNY   41  24  52 NW14      30.01F
BROKEN BOW     CLOUDY    41  23  48 NW17      30.05R
IMPERIAL       MOSUNNY   40  20  44 NW20      30.12R WCI  30
NORTH PLATTE   PTSUNNY   34  24  67 W10       30.10R WCI  26
MCCOOK         PTSUNNY   36  24  62 NW8       30.10R WCI  30

...EASTERN NEBRASKA...

CITY           SKY/WX    TMP DP  RH WIND       PRES   REMARKS
NORFOLK        MOSUNNY   39  23  52 W9        30.01R WCI  33
SO SIOUX CITY  PTSUNNY   36  25  64 SW7       30.03R WCI  30
TEKAMAH        MOSUNNY   34  25  69 S12       30.06F WCI  25
COLUMBUS       PTSUNNY   34  19  55 W9        30.06S WCI  26
ALBION         PTSUNNY   38  22  52 NW8       30.02S WCI  32
OMAHA EPPLEY   MOSUNNY   33  24  69 S9        30.08S WCI  25
OFFUTT AFB     SUNNY     33  25  70 S8        30.07F WCI  27
MILLARD        SUNNY     32  24  71 SW6       30.09R WCI  26
LINCOLN        SUNNY     33  23  66 SW9       30.10S WCI  25
NEBRASKA CITY  SUNNY     33  24  68 SW14      30.09F WCI  24
BEATRICE       SUNNY     32  25  73 SW13      30.09F WCI  23
FALLS CITY     SUNNY     38  25  59 VRB7      30.13F WCI  33

...NORTHERN KANSAS...

CITY           SKY/WX    TMP DP  RH WIND       PRES   REMARKS
GOODLAND       SUNNY     40  22  48 NW20G28   30.12R WCI  30
HILL CITY      SUNNY     39  21  48 W12       30.11S WCI  32
NORTON         SUNNY     37  18  44 NW13      30.08S WCI  29
PHILLIPSBURG   SUNNY     37  23  56 W12       30.10S WCI  30
SMITH CENTER   SUNNY     30  19  64 W9        30.11R WCI  22
BELOIT         SUNNY     37  23  56 SW6       30.11F WCI  33
HAYS           SUNNY     34  18  51 W8        30.12F WCI  27
RUSSELL        SUNNY     33  24  69 SW14      30.11F WCI  23
CONCORDIA      SUNNY     36  23  59 SW10      30.10F WCI  28
SALINA         SUNNY     39  25  57 SW13      30.16F WCI  31
TOPEKA         SUNNY     37  25  61 SW8       30.19F WCI  31



USA.gov is the U.S. government's official web portal to all federal, state and local government web resources and services.